Location: Allison Elementary School
(34.0784°N, 117.7317°W)
Time: 20:44:35
(UTC+00:00)

FengYun 1-2 T - Pass Details

Date: 15 November 2019
Orbit: 846 x 881 km, 98.7° (Epoch: 09 December)

Event Time Altitude Azimuth Distance (km) Brightness Sun altitude
Rises 01:39:47 0° 149° (SSE) 3,428 7.2 -11.0°
Reaches altitude 10° 01:42:14 10° 144° (SE) 2,489 6.4 -11.5°
Maximum altitude 01:47:29 47° 72° (ENE) 1,128 4.4 -12.6°
Drops below altitude 10° 01:52:44 10° 0° (N) 2,483 6.5 -13.6°
Sets 01:55:10 0° 355° (N) 3,419 7.3 -14.1°
